RSC36BU GCLP-GCXO

Flight info

Callsign RSC36BU
Flight time 0h 25m
Altitude 13000
Route TFN
Aircraft AT76/M-SDFGRY/LB1

Departure

Time 2026-04-30 18:42
Airport Gran Canaria Airport (GCLP)

Arrival

Time 2026-04-30 19:07
Airport Tenerife Norte-Ciudad de La Laguna Airport (GCXO)
Time Latitude Longitude Altitude Speed Heading
2026-04-30 18:13 27.94116 -15.38686 81 ft 0 kts 291°
2026-04-30 18:33 27.94105 -15.38654 81 ft 7 kts 278°
2026-04-30 18:33 27.94135 -15.38593 70 ft 6 kts 193°
2026-04-30 18:34 27.94141 -15.38592 71 ft 0 kts 203°
2026-04-30 18:34 27.94135 -15.38595 69 ft 5 kts 206°
2026-04-30 18:35 27.94101 -15.38612 72 ft 9 kts 202°
2026-04-30 18:35 27.94011 -15.38652 73 ft 18 kts 201°
2026-04-30 18:35 27.93904 -15.38699 81 ft 14 kts 200°
2026-04-30 18:36 27.93729 -15.38775 82 ft 19 kts 200°
2026-04-30 18:36 27.93587 -15.38839 81 ft 26 kts 201°
2026-04-30 18:36 27.93227 -15.38991 76 ft 29 kts 202°
2026-04-30 18:37 27.93003 -15.39091 81 ft 22 kts 201°
2026-04-30 18:37 27.92893 -15.39128 83 ft 13 kts 166°
2026-04-30 18:37 27.92843 -15.39033 83 ft 18 kts 134°
2026-04-30 18:37 27.92718 -15.39066 83 ft 29 kts 200°
2026-04-30 18:38 27.92468 -15.39177 93 ft 47 kts 202°
2026-04-30 18:38 27.92222 -15.39284 95 ft 38 kts 202°
2026-04-30 18:38 27.91992 -15.39387 92 ft 25 kts 200°
2026-04-30 18:38 27.91873 -15.39375 87 ft 13 kts 113°
2026-04-30 18:39 27.91838 -15.39270 82 ft 15 kts 111°
2026-04-30 18:39 27.91797 -15.39153 77 ft 17 kts 111°
2026-04-30 18:39 27.91800 -15.39042 71 ft 9 kts 26°
2026-04-30 18:39 27.91824 -15.39032 74 ft 0 kts 21°
2026-04-30 18:41 27.91995 -15.38956 63 ft 56 kts 22°
2026-04-30 18:41 27.92545 -15.38713 52 ft 112 kts 21°
2026-04-30 18:42 27.93379 -15.38361 206 ft 137 kts 21°
2026-04-30 18:42 27.95286 -15.37675 1012 ft 145 kts 18°
2026-04-30 18:42 27.96319 -15.37296 1072 ft 167 kts 21°
2026-04-30 18:45 28.07007 -15.34578 4349 ft 174 kts 281°
2026-04-30 18:45 28.07210 -15.35944 4629 ft 177 kts 279°
2026-04-30 18:45 28.07388 -15.37334 4916 ft 180 kts 278°
2026-04-30 18:46 28.07522 -15.38752 5176 ft 182 kts 275°
2026-04-30 18:46 28.07609 -15.40182 5484 ft 182 kts 273°
2026-04-30 18:46 28.07682 -15.41610 5795 ft 183 kts 273°
2026-04-30 18:46 28.07767 -15.43043 6062 ft 182 kts 282°
2026-04-30 18:47 28.08349 -15.44321 6315 ft 185 kts 302°
2026-04-30 18:47 28.09063 -15.45535 6606 ft 186 kts 302°
2026-04-30 18:47 28.09781 -15.46758 6873 ft 187 kts 302°
2026-04-30 18:47 28.10493 -15.47990 7138 ft 187 kts 301°
2026-04-30 18:48 28.11199 -15.49233 7405 ft 188 kts 301°
2026-04-30 18:48 28.11899 -15.50485 7658 ft 188 kts 300°
2026-04-30 18:48 28.12594 -15.51742 7885 ft 188 kts 300°
2026-04-30 18:48 28.13286 -15.53004 8100 ft 189 kts 300°
2026-04-30 18:49 28.13978 -15.54269 8333 ft 189 kts 299°
2026-04-30 18:49 28.14672 -15.55538 8553 ft 190 kts 299°
2026-04-30 18:49 28.15371 -15.56807 8770 ft 190 kts 300°
2026-04-30 18:49 28.16076 -15.58080 9007 ft 191 kts 299°
2026-04-30 18:50 28.16782 -15.59356 9237 ft 191 kts 299°
2026-04-30 18:50 28.17487 -15.60634 9470 ft 192 kts 299°
2026-04-30 18:50 28.18193 -15.61918 9702 ft 192 kts 299°
2026-04-30 18:50 28.18902 -15.63207 9922 ft 194 kts 298°
2026-04-30 18:51 28.19626 -15.64524 10029 ft 200 kts 298°
2026-04-30 18:51 28.20379 -15.65893 10075 ft 209 kts 298°
2026-04-30 18:51 28.21162 -15.67320 10099 ft 217 kts 298°
2026-04-30 18:51 28.21974 -15.68799 10106 ft 224 kts 298°
2026-04-30 18:52 28.22810 -15.70322 10111 ft 230 kts 299°
2026-04-30 18:52 28.23663 -15.71881 10114 ft 235 kts 299°
2026-04-30 18:52 28.24532 -15.73467 10115 ft 239 kts 299°
2026-04-30 18:52 28.25412 -15.75073 10115 ft 241 kts 299°
2026-04-30 18:53 28.26303 -15.76697 10114 ft 243 kts 299°
2026-04-30 18:53 28.27201 -15.78335 10114 ft 245 kts 299°
2026-04-30 18:53 28.28102 -15.79980 10116 ft 246 kts 299°
2026-04-30 18:53 28.29007 -15.81634 10114 ft 247 kts 299°
2026-04-30 18:54 28.29914 -15.83291 10118 ft 248 kts 299°
2026-04-30 18:54 28.30826 -15.84957 10118 ft 249 kts 299°
2026-04-30 18:54 28.31739 -15.86624 10116 ft 249 kts 299°
2026-04-30 18:54 28.32652 -15.88292 10114 ft 249 kts 299°
2026-04-30 18:55 28.33565 -15.89964 10115 ft 249 kts 299°
2026-04-30 18:55 28.35390 -15.93306 10116 ft 249 kts 299°
2026-04-30 18:55 28.36290 -15.94957 10115 ft 249 kts 299°
2026-04-30 18:56 28.38167 -15.98398 9671 ft 266 kts 299°
2026-04-30 18:56 28.39040 -16.00004 9330 ft 274 kts 299°
2026-04-30 18:56 28.40019 -16.01807 8968 ft 282 kts 300°
2026-04-30 18:57 28.42014 -16.05502 8358 ft 265 kts 300°
2026-04-30 18:57 28.42960 -16.07268 7994 ft 259 kts 299°
2026-04-30 18:57 28.43879 -16.09000 7638 ft 254 kts 299°
2026-04-30 18:58 28.45639 -16.12362 7153 ft 238 kts 299°
2026-04-30 18:58 28.46478 -16.13957 6867 ft 235 kts 299°
2026-04-30 18:58 28.47305 -16.15533 6682 ft 228 kts 299°
2026-04-30 18:59 28.48881 -16.18620 6552 ft 230 kts 298°
2026-04-30 19:00 28.51442 -16.23474 6514 ft 246 kts 304°
2026-04-30 19:00 28.52472 -16.25043 6517 ft 249 kts 307°
2026-04-30 19:00 28.54502 -16.28388 5872 ft 256 kts 302°
2026-04-30 19:01 28.55925 -16.31833 5565 ft 229 kts 289°
2026-04-30 19:01 28.56393 -16.33513 5536 ft 217 kts 286°
2026-04-30 19:02 28.57188 -16.36839 4943 ft 228 kts 284°
2026-04-30 19:02 28.57994 -16.40554 4262 ft 249 kts 282°
2026-04-30 19:03 28.58568 -16.43961 4065 ft 185 kts 271°
2026-04-30 19:03 28.57171 -16.45622 4009 ft 145 kts 198°
2026-04-30 19:04 28.55045 -16.46454 4008 ft 174 kts 202°
2026-04-30 19:04 28.52772 -16.46589 4031 ft 156 kts 159°
2026-04-30 19:05 28.51594 -16.44834 3762 ft 153 kts 106°
2026-04-30 19:05 28.50962 -16.42412 3346 ft 164 kts 106°
2026-04-30 19:06 28.50228 -16.40010 2911 ft 148 kts 112°
2026-04-30 19:06 28.49874 -16.39002 2716 ft 128 kts 112°
2026-04-30 19:06 28.49265 -16.37153 2382 ft 129 kts 110°
2026-04-30 19:07 28.48621 -16.35217 2090 ft 128 kts 110°
2026-04-30 19:07 28.48397 -16.34552 2065 ft 48 kts 109°
2026-04-30 19:08 28.48278 -16.34177 2050 ft 19 kts 102°
2026-04-30 19:08 28.48396 -16.34233 2049 ft 7 kts 320°
2026-04-30 19:08 28.48430 -16.34285 2050 ft 13 kts 289°
2026-04-30 19:09 28.48513 -16.34548 2062 ft 13 kts 289°
2026-04-30 19:09 28.48537 -16.34619 2066 ft 6 kts 287°
2026-04-30 19:09 28.48549 -16.34655 2068 ft 9 kts 290°
2026-04-30 19:10 28.48627 -16.34648 2067 ft 0 kts 21°
2026-04-30 19:10 28.48663 -16.34671 2068 ft 6 kts
2026-04-30 19:11 28.48677 -16.34665 2068 ft 0 kts 21°
2026-04-30 19:11 28.48681 -16.34664 2067 ft 0 kts 21°